Terminal Aerodrome Forecast
Issued by NWS Duluth, MN

Home | Current Version | Previous Version | Text Only | Print | Product List | Glossary On
Versions: 1 2 3 4 5 6 7 8 9 10 11 12 13 14 15 16 17 18 19 20 21 22 23 24 25 26 27 28 29 30 31 32 33 34 35 36 37 38 39 40 41 42
000
FTUS43 KDLH 261138
TAFDLH
TAF
KDLH 261138Z 2612/2712 08008KT P6SM -FZDZ OVC003
     FM261500 06006KT 1 1/2SM -DZ BR VCSH OVC003
     FM262300 05004KT P6SM BKN008
     FM270000 05004KT 2SM BR OVC008
     FM270600 36003KT 1 1/2SM BR OVC010=

USA.gov is the U.S. government's official web portal to all federal, state and local government web resources and services.